FENGYUN 1C DEB, 36645

Orbit data source: Space-Track

FENGYUN 1C DEB, 36645 is space debris in SSO originally from a launch on Mon, 10 May 1999 UTC launched from the Taiyaun Space Center, China (TSC). Fengyun 1C debris stems from the Chinese weather satellite Fengyun-1C, which was intentionally destroyed by a Chinese anti-satellite missile in 2007. This event dramatically increased the amount of space debris, with thousands of trackable fragments posing hazards to satellites and human spaceflight. The Fengyun 1C debris cloud has become a focal point in discussions about space sustainability and the need for international regulations to prevent the creation of new debris.

Loading next visibility...
Identifier
36645, 1999-025DXP
Orbit
SSO
Country
Flag of CNCN / PRC
Related business
Manufacturer
Unknown
Mission
Spacecraft
Bus & Motor
Unknown
Mass
Unknown
Launch date (UTC)
1999-05-10 (27 years ago)
Launch vehicle
Unknown
Launch site
Taiyaun Space Center, China (TSC)
Object type
Payload
Rocket body
Debris
Shape & HBR
Unknown shape, 0.1 m
Radar Cross Section
Small (<0.1 m²)

Expand to show TLE details & history
Last TLE update: 2 weeks ago

TLE from 2 weeks ago
0 FENGYUN 1C DEB
1 36645U 99025DXP 26151.31256990  .00001632  00000-0  17150-2 0  9997
2 36645  98.5112 280.3690 0291678 318.0959  39.8187 13.59180926598505
Epoch: 2026-05-31T07:30Z
TLE epoch observation values (Epoch: 2026-05-31T07:30:06.039Z)
Latitude
0.00003°
Longitude
-80.97222°
Altitude
877.999 km
Speed
7.495 km/s
True Right ascension
18h 41m 28s
True Declination
0° 00' 00"
Sunlit
Object was in full shadow at epoch
Visualization orbit readout
Latitude
Unknown
Longitude
Unknown
Altitude
Unknown
Speed
Unknown
Apparent Right ascension
Unknown
Apparent Declination
Unknown
Sunlit
N/A
Visualization observer readout
Local Sidereal Time
06:18:52
Azimuth
Unknown
Elevation
Unknown
Doppler factor
Unknown
Orbital elements
Apogee altitude
1,252.149 km
Perigee altitude
819.647 km
Semi-major axis
7,414.035 km
Eccentricity
0.02917
Inclination
98.5112°
RAAN
280.369°
Arg. of periapsis
318.0959°
True anomaly
42.02008°
Mean anomaly
39.8187°
Eccentric anomaly
40.91319°
Mean motion
3.39986 °/min
Orbital period
105.89 mins
BSTAR
0.001715
Loading maneuver chart data...
Computing Atmospheric mass density...

Documentation

Showing up to 5 results
|